| time (UTC) | temp F | wind direction | speed knots | gust knots | rain 1hr in | rain 24hr in | rain mn in | humidity % | barometer mb |
| 20260831195945 | 74 | 310 | 1.7 | 1.7 | 0.00 | 0.00 | 0.00 | 56 | 1015.3 |
| 20260831195441 | 75 | 310 | 0.9 | 6.1 | 0.00 | 0.00 | 0.00 | 57 | 1015.4 |
| 20260831194943 | 75 | 317 | 1.7 | 6.1 | 0.00 | 0.00 | 0.00 | 56 | 1015.3 |
| 20260831194442 | 75 | 323 | 1.7 | 3.5 | 0.00 | 0.00 | 0.00 | 54 | 1015.3 |
| 20260831193936 | 76 | 311 | 0.9 | 3.5 | 0.00 | 0.00 | 0.00 | 54 | 1015.0 |
| 20260831193436 | 77 | 315 | 1.7 | 3.5 | 0.00 | 0.00 | 0.00 | 53 | 1015.3 |
| 20260831192934 | 78 | 319 | 0.9 | 3.5 | 0.00 | 0.00 | 0.00 | 51 | 1015.1 |
| 20260831192417 | 78 | 314 | 1.7 | 5.2 | 0.00 | 0.00 | 0.00 | 50 | 1015.0 |
| 20260831191917 | 79 | 320 | 1.7 | 5.2 | 0.00 | 0.00 | 0.00 | 51 | 1015.2 |
| 20260831190904 | 79 | 322 | 1.7 | 8.7 | 0.00 | 0.00 | 0.00 | 49 | 1014.9 |
| 20260831190407 | 79 | 320 | 2.6 | 8.7 | 0.00 | 0.00 | 0.00 | 48 | 1014.8 |
| 20260831185907 | 80 | 304 | 3.5 | 7.8 | 0.00 | 0.00 | 0.00 | 47 | 1014.9 |
| 20260831185351 | 80 | 339 | 0.9 | 7.8 | 0.00 | 0.00 | 0.00 | 46 | 1014.9 |
| 20260831184851 | 80 | 320 | 0.9 | 8.7 | 0.00 | 0.00 | 0.00 | 44 | 1014.7 |
| 20260831184353 | 80 | 315 | 1.7 | 8.7 | 0.00 | 0.00 | 0.00 | 44 | 1014.8 |
| 20260831183841 | 80 | 308 | 3.5 | 6.1 | 0.00 | 0.00 | 0.00 | 43 | 1014.6 |
| 20260831183342 | 80 | 308 | 3.5 | 6.1 | 0.00 | 0.00 | 0.00 | 42 | 1014.7 |
| 20260831182843 | 81 | 322 | 0.9 | 6.1 | 0.00 | 0.00 | 0.00 | 42 | 1014.6 |
| 20260831182343 | 81 | 308 | 2.6 | 7.0 | 0.00 | 0.00 | 0.00 | 42 | 1014.7 |
| 20260831181842 | 81 | 313 | 1.7 | 7.0 | 0.00 | 0.00 | 0.00 | 42 | 1014.6 |
| 20260831181346 | 81 | 317 | 1.7 | 5.2 | 0.00 | 0.00 | 0.00 | 44 | 1014.7 |
| 20260831180843 | 81 | 318 | 0.9 | 7.8 | 0.00 | 0.00 | 0.00 | 43 | 1014.7 |
| 20260831180342 | 81 | 314 | 0.9 | 11.3 | 0.00 | 0.00 | 0.00 | 42 | 1014.5 |
| 20260831175843 | 81 | 301 | 0.0 | 11.3 | 0.00 | 0.00 | 0.00 | 41 | 1014.7 |
| 20260831175348 | 81 | 304 | 0.0 | 6.1 | 0.00 | 0.00 | 0.00 | 42 | 1014.5 |
| 20260831174841 | 82 | 332 | 0.9 | 5.2 | 0.00 | 0.00 | 0.00 | 42 | 1014.4 |
| 20260831174344 | 82 | 7 | 0.0 | 7.8 | 0.00 | 0.00 | 0.00 | 41 | 1014.6 |
| 20260831173842 | 82 | 130 | 0.0 | 7.8 | 0.00 | 0.00 | 0.00 | 41 | 1014.5 |
| 20260831172840 | 82 | 315 | 0.9 | 3.5 | 0.00 | 0.00 | 0.00 | 44 | 1014.5 |
| 20260831172326 | 83 | 312 | 1.7 | 3.5 | 0.00 | 0.00 | 0.00 | 43 | 1014.3 |
| 20260831171826 | 83 | 56 | 0.0 | 7.0 | 0.00 | 0.00 | 0.00 | 46 | 1014.4 |
| 20260831171328 | 83 | 322 | 3.5 | 7.0 | 0.00 | 0.00 | 0.00 | 46 | 1014.4 |
| 20260831170814 | 84 | 59 | 0.9 | 6.1 | 0.00 | 0.00 | 0.00 | 46 | 1014.3 |
| 20260831170322 | 84 | 338 | 0.0 | 6.1 | 0.00 | 0.00 | 0.00 | 46 | 1014.2 |
| 20260831165817 | 84 | 315 | 2.6 | 6.1 | 0.00 | 0.00 | 0.00 | 45 | 1014.3 |
| 20260831165305 | 85 | 39 | 0.9 | 6.1 | 0.00 | 0.00 | 0.00 | 45 | 1014.2 |
| 20260831164803 | 85 | 52 | 0.9 | 2.6 | 0.00 | 0.00 | 0.00 | 44 | 1014.0 |
| 20260831164305 | 85 | 91 | 0.9 | 2.6 | 0.00 | 0.00 | 0.00 | 44 | 1013.9 |
| 20260831163255 | 85 | 303 | 3.5 | 6.1 | 0.00 | 0.00 | 0.00 | 43 | 1014.1 |
| 20260831162753 | 85 | 326 | 1.7 | 6.1 | 0.00 | 0.00 | 0.00 | 43 | 1014.2 |
| 20260831162244 | 86 | 311 | 1.7 | 7.8 | 0.00 | 0.00 | 0.00 | 43 | 1014.1 |
| 20260831161246 | 86 | 317 | 1.7 | 5.2 | 0.00 | 0.00 | 0.00 | 43 | 1014.3 |
| 20260831160743 | 86 | 327 | 0.9 | 5.2 | 0.00 | 0.00 | 0.00 | 44 | 1014.1 |
| 20260831160245 | 86 | 330 | 2.6 | 7.0 | 0.00 | 0.00 | 0.00 | 44 | 1014.3 |
| 20260831155740 | 86 | 336 | 0.9 | 7.0 | 0.00 | 0.00 | 0.00 | 43 | 1014.1 |
| 20260831155241 | 87 | 320 | 0.9 | 5.2 | 0.00 | 0.00 | 0.00 | 42 | 1014.1 |
| 20260831154243 | 87 | 21 | 0.9 | 1.7 | 0.00 | 0.00 | 0.00 | 43 | 1014.1 |
| 20260831153739 | 87 | 0 | 0.0 | 1.7 | 0.00 | 0.00 | 0.00 | 41 | 1014.0 |
| 20260831152740 | 88 | 100 | 0.0 | 5.2 | 0.00 | 0.00 | 0.00 | 41 | 1014.0 |
| 20260831152241 | 88 | 329 | 4.3 | 5.2 | 0.00 | 0.00 | 0.00 | 40 | 1014.0 |
| 20260831151243 | 88 | 352 | 0.9 | 2.6 | 0.00 | 0.00 | 0.00 | 41 | 1014.3 |
| 20260831150738 | 88 | 332 | 0.0 | 6.1 | 0.00 | 0.00 | 0.00 | 43 | 1014.2 |
| 20260831150242 | 88 | 325 | 0.9 | 7.8 | 0.00 | 0.00 | 0.00 | 42 | 1014.1 |
| 20260831145742 | 88 | 315 | 3.5 | 7.8 | 0.00 | 0.00 | 0.00 | 42 | 1014.1 |
| 20260831145245 | 88 | 323 | 2.6 | 7.8 | 0.00 | 0.00 | 0.00 | 43 | 1014.2 |
| 20260831144741 | 89 | 334 | 4.3 | 7.8 | 0.00 | 0.00 | 0.00 | 43 | 1014.2 |
| 20260831144246 | 89 | 124 | 0.9 | 1.7 | 0.00 | 0.00 | 0.00 | 44 | 1014.1 |
| 20260831143739 | 90 | 22 | 0.9 | 1.7 | 0.00 | 0.00 | 0.00 | 45 | 1014.1 |
| 20260831143241 | 90 | 120 | 0.9 | 1.7 | 0.00 | 0.00 | 0.00 | 45 | 1014.0 |
| 20260831142739 | 90 | 17 | 0.0 | 3.5 | 0.00 | 0.00 | 0.00 | 46 | 1013.9 |
| 20260831142245 | 90 | 79 | 0.9 | 7.0 | 0.00 | 0.00 | 0.00 | 44 | 1013.9 |
| 20260831141242 | 90 | 70 | 0.0 | 0.9 | 0.00 | 0.00 | 0.00 | 43 | 1014.0 |
| 20260831140251 | 91 | 105 | 0.0 | 1.7 | 0.00 | 0.00 | 0.00 | 41 | 1014.0 |
| 20260831135243 | 90 | 5 | 0.0 | 1.7 | 0.00 | 0.00 | 0.00 | 43 | 1013.9 |
| 20260831134739 | 89 | 140 | 0.9 | 6.1 | 0.00 | 0.00 | 0.00 | 43 | 1014.0 |
| 20260831134242 | 89 | 28 | 0.9 | 6.1 | 0.00 | 0.00 | 0.00 | 43 | 1014.2 |
| 20260831132728 | 92 | 325 | 1.7 | 12.2 | 0.00 | 0.00 | 0.00 | 39 | 1014.0 |
| 20260831132229 | 91 | 323 | 0.0 | 5.2 | 0.00 | 0.00 | 0.00 | 40 | 1014.1 |
| 20260831131215 | 92 | 324 | 1.7 | 3.5 | 0.00 | 0.00 | 0.00 | 39 | 1014.2 |
| 20260831130714 | 91 | 347 | 0.9 | 3.5 | 0.00 | 0.00 | 0.00 | 40 | 1014.3 |
| 20260831130214 | 91 | 317 | 0.0 | 7.0 | 0.00 | 0.00 | 0.00 | 40 | 1014.0 |
| 20260831125716 | 89 | 306 | 0.0 | 7.0 | 0.00 | 0.00 | 0.00 | 42 | 1014.3 |
| 20260831124717 | 89 | 314 | 5.2 | 7.8 | 0.00 | 0.00 | 0.00 | 40 | 1014.3 |
| 20260831124220 | 90 | 322 | 1.7 | 7.0 | 0.00 | 0.00 | 0.00 | 40 | 1014.4 |
| 20260831123714 | 92 | 326 | 6.1 | 7.0 | 0.00 | 0.00 | 0.00 | 38 | 1014.4 |
| 20260831122202 | 90 | 312 | 4.3 | 6.1 | 0.00 | 0.00 | 0.00 | 40 | 1014.4 |
| 20260831121650 | 89 | 0 | 0.0 | 7.0 | 0.00 | 0.00 | 0.00 | 41 | 1014.5 |
| 20260831121149 | 89 | 322 | 0.9 | 7.8 | 0.00 | 0.00 | 0.00 | 41 | 1014.7 |
| 20260831120656 | 89 | 331 | 0.0 | 7.8 | 0.00 | 0.00 | 0.00 | 40 | 1014.5 |
| 20260831120140 | 90 | 326 | 1.7 | 5.2 | 0.00 | 0.00 | 0.00 | 39 | 1014.4 |
| 20260831115640 | 89 | 226 | 0.0 | 7.8 | 0.00 | 0.00 | 0.00 | 39 | 1014.6 |
| 20260831115138 | 89 | 311 | 0.9 | 9.6 | 0.00 | 0.00 | 0.00 | 41 | 1014.7 |
| 20260831114638 | 90 | 317 | 3.5 | 9.6 | 0.00 | 0.00 | 0.00 | 39 | 1014.6 |
| 20260831114143 | 89 | 346 | 0.0 | 8.7 | 0.00 | 0.00 | 0.00 | 42 | 1014.7 |
| 20260831113641 | 89 | 343 | 2.6 | 8.7 | 0.00 | 0.00 | 0.00 | 41 | 1014.7 |
| 20260831113141 | 90 | 303 | 2.6 | 6.1 | 0.00 | 0.00 | 0.00 | 41 | 1014.8 |
| 20260831112643 | 89 | 68 | 0.9 | 2.6 | 0.00 | 0.00 | 0.00 | 42 | 1014.9 |
| 20260831112138 | 89 | 330 | 0.0 | 6.1 | 0.00 | 0.00 | 0.00 | 43 | 1014.9 |
| 20260831111638 | 88 | 305 | 2.6 | 6.1 | 0.00 | 0.00 | 0.00 | 43 | 1014.8 |
| 20260831111141 | 88 | 312 | 1.7 | 6.1 | 0.00 | 0.00 | 0.00 | 44 | 1014.6 |
| 20260831110626 | 88 | 326 | 0.9 | 7.8 | 0.00 | 0.00 | 0.00 | 42 | 1014.8 |
| 20260831110131 | 87 | 316 | 4.3 | 7.8 | 0.00 | 0.00 | 0.00 | 43 | 1014.8 |
| 20260831105629 | 87 | 304 | 0.0 | 7.0 | 0.00 | 0.00 | 0.00 | 44 | 1014.7 |
| 20260831105126 | 87 | 313 | 3.5 | 7.8 | 0.00 | 0.00 | 0.00 | 42 | 1014.7 |
| 20260831104629 | 87 | 293 | 3.5 | 7.8 | 0.00 | 0.00 | 0.00 | 44 | 1014.9 |
| 20260831104126 | 87 | 299 | 1.7 | 7.0 | 0.00 | 0.00 | 0.00 | 44 | 1014.8 |
| 20260831103629 | 87 | 308 | 1.7 | 7.0 | 0.00 | 0.00 | 0.00 | 46 | 1014.8 |
| 20260831103130 | 87 | 318 | 1.7 | 6.1 | 0.00 | 0.00 | 0.00 | 43 | 1015.1 |
| 20260831102116 | 88 | 306 | 1.7 | 6.1 | 0.00 | 0.00 | 0.00 | 45 | 1015.0 |
| 20260831101104 | 87 | 353 | 0.9 | 5.2 | 0.00 | 0.00 | 0.00 | 47 | 1015.1 |
| 20260831100602 | 85 | 295 | 0.9 | 7.8 | 0.00 | 0.00 | 0.00 | 49 | 1015.1 |
| 20260831100055 | 84 | 310 | 3.5 | 7.8 | 0.00 | 0.00 | 0.00 | 47 | 1015.1 |
| 20260831095550 | 84 | 309 | 0.9 | 7.0 | 0.00 | 0.00 | 0.00 | 52 | 1015.2 |
| 20260831095051 | 83 | 320 | 1.7 | 8.7 | 0.00 | 0.00 | 0.00 | 51 | 1015.2 |
| 20260831094539 | 84 | 313 | 2.6 | 8.7 | 0.00 | 0.00 | 0.00 | 51 | 1015.2 |
| 20260831094038 | 83 | 306 | 2.6 | 7.0 | 0.00 | 0.00 | 0.00 | 53 | 1015.2 |
| 20260831093540 | 83 | 310 | 0.0 | 6.1 | 0.00 | 0.00 | 0.00 | 56 | 1015.1 |
| 20260831093037 | 83 | 285 | 1.7 | 7.8 | 0.00 | 0.00 | 0.00 | 55 | 1015.3 |
| 20260831092540 | 82 | 329 | 1.7 | 7.8 | 0.00 | 0.00 | 0.00 | 56 | 1015.3 |
| 20260831092040 | 83 | 309 | 2.6 | 6.1 | 0.00 | 0.00 | 0.00 | 54 | 1015.6 |
| 20260831091538 | 82 | 312 | 1.7 | 6.1 | 0.00 | 0.00 | 0.00 | 58 | 1015.5 |
| 20260831091029 | 82 | 343 | 0.9 | 6.1 | 0.00 | 0.00 | 0.00 | 58 | 1015.5 |
| 20260831090526 | 83 | 305 | 1.7 | 5.2 | 0.00 | 0.00 | 0.00 | 57 | 1015.7 |
| 20260831090027 | 81 | 12 | 0.0 | 7.0 | 0.00 | 0.00 | 0.00 | 61 | 1015.6 |
| 20260831085529 | 80 | 308 | 1.7 | 7.8 | 0.00 | 0.00 | 0.00 | 60 | 1015.8 |
| 20260831084527 | 81 | 330 | 0.0 | 6.1 | 0.00 | 0.00 | 0.00 | 60 | 1015.6 |
| 20260831084029 | 81 | 318 | 0.0 | 6.1 | 0.00 | 0.00 | 0.00 | 63 | 1015.7 |
| 20260831083525 | 79 | 321 | 0.0 | 6.1 | 0.00 | 0.00 | 0.00 | 63 | 1015.5 |
| 20260831083025 | 79 | 305 | 1.7 | 6.1 | 0.00 | 0.00 | 0.00 | 62 | 1015.6 |
| 20260831082528 | 80 | 315 | 3.5 | 6.1 | 0.00 | 0.00 | 0.00 | 61 | 1015.4 |
| 20260831082029 | 79 | 322 | 0.0 | 6.1 | 0.00 | 0.00 | 0.00 | 64 | 1015.6 |
| 20260831081525 | 79 | 326 | 2.6 | 6.1 | 0.00 | 0.00 | 0.00 | 62 | 1015.5 |
| 20260831081029 | 79 | 309 | 1.7 | 5.2 | 0.00 | 0.00 | 0.00 | 62 | 1015.7 |
| 20260831080035 | 79 | 304 | 0.0 | 5.2 | 0.00 | 0.00 | 0.00 | 65 | 1015.4 |
| 20260831075025 | 77 | 317 | 0.0 | 0.0 | 0.00 | 0.00 | 0.00 | 64 | 1015.6 |
| 20260831074527 | 76 | 317 | 0.0 | 0.9 | 0.00 | 0.00 | 0.00 | 65 | 1015.5 |
| 20260831074028 | 76 | 316 | 0.0 | 0.9 | 0.00 | 0.00 | 0.00 | 64 | 1015.7 |
| 20260831073526 | 76 | 315 | 0.0 | 0.0 | 0.00 | 0.00 | 0.00 | 67 | 1015.4 |
| 20260831073026 | 75 | 315 | 0.0 | 0.9 | 0.00 | 0.00 | 0.00 | 63 | 1015.3 |
| 20260831072528 | 73 | 315 | 0.0 | 1.7 | 0.00 | 0.00 | 0.00 | 68 | 1015.5 |
| 20260831072026 | 73 | 316 | 0.9 | 1.7 | 0.00 | 0.00 | 0.00 | 67 | 1015.6 |
| 20260831071525 | 72 | 315 | 0.0 | 0.9 | 0.00 | 0.00 | 0.00 | 68 | 1015.4 |
| 20260831071028 | 72 | 315 | 0.0 | 0.0 | 0.00 | 0.00 | 0.00 | 67 | 1015.4 |
| 20260831070526 | 71 | 315 | 0.0 | 0.0 | 0.00 | 0.00 | 0.00 | 70 | 1015.5 |
| 20260831065514 | 70 | 315 | 0.0 | 0.0 | 0.00 | 0.00 | 0.00 | 73 | 1015.5 |
| 20260831065014 | 70 | 315 | 0.0 | 0.0 | 0.00 | 0.00 | 0.00 | 73 | 1015.4 |
| 20260831064515 | 69 | 315 | 0.0 | 0.0 | 0.00 | 0.00 | 0.00 | 75 | 1015.4 |
| 20260831064005 | 69 | 315 | 0.0 | 0.9 | 0.00 | 0.00 | 0.00 | 74 | 1015.4 |
| 20260831063003 | 68 | 315 | 0.0 | 0.0 | 0.00 | 0.00 | 0.00 | 76 | 1015.7 |
| 20260831062453 | 67 | 315 | 0.0 | 0.0 | 0.00 | 0.00 | 0.00 | 77 | 1015.4 |
| 20260831061951 | 66 | 315 | 0.0 | 0.9 | 0.00 | 0.00 | 0.00 | 79 | 1015.4 |
| 20260831055939 | 65 | 315 | 0.0 | 0.0 | 0.00 | 0.00 | 0.00 | 83 | 1015.3 |
| 20260831055439 | 63 | 315 | 0.0 | 0.0 | 0.00 | 0.00 | 0.00 | 86 | 1015.2 |
| 20260831054937 | 63 | 315 | 0.0 | 0.0 | 0.00 | 0.00 | 0.00 | 85 | 1015.4 |
| 20260831054439 | 62 | 315 | 0.0 | 0.0 | 0.00 | 0.00 | 0.00 | 89 | 1015.4 |
| 20260831053937 | 62 | 315 | 0.0 | 0.0 | 0.00 | 0.00 | 0.00 | 90 | 1015.2 |
| 20260831053442 | 61 | 315 | 0.0 | 0.0 | 0.00 | 0.00 | 0.00 | 91 | 1015.2 |
| 20260831052943 | 61 | 315 | 0.0 | 0.0 | 0.00 | 0.00 | 0.00 | 91 | 1015.2 |
| 20260831051441 | 60 | 315 | 0.0 | 0.0 | 0.00 | 0.00 | 0.00 | 90 | 1015.1 |
| 20260831045426 | 60 | 316 | 0.0 | 0.0 | 0.00 | 0.00 | 0.00 | 90 | 1015.0 |
| 20260831044426 | 60 | 316 | 0.0 | 0.0 | 0.00 | 0.00 | 0.00 | 90 | 1015.0 |
| 20260831043926 | 60 | 316 | 0.0 | 0.0 | 0.00 | 0.00 | 0.00 | 90 | 1015.0 |
| 20260831043427 | 60 | 316 | 0.0 | 0.0 | 0.00 | 0.00 | 0.00 | 90 | 1015.1 |
| 20260831042929 | 60 | 316 | 0.0 | 0.0 | 0.00 | 0.00 | 0.00 | 90 | 1014.8 |
| 20260831042401 | 60 | 316 | 0.0 | 0.0 | 0.00 | 0.00 | 0.00 | 89 | 1014.7 |
| 20260831041902 | 60 | 316 | 0.0 | 0.0 | 0.00 | 0.00 | 0.00 | 89 | 1014.8 |
| 20260831041407 | 60 | 316 | 0.0 | 0.0 | 0.00 | 0.00 | 0.00 | 89 | 1014.8 |
| 20260831040402 | 60 | 316 | 0.0 | 0.0 | 0.00 | 0.00 | 0.00 | 89 | 1014.8 |
| 20260831035905 | 60 | 316 | 0.0 | 0.0 | 0.00 | 0.00 | 0.00 | 88 | 1014.7 |
| 20260831035402 | 60 | 316 | 0.0 | 0.0 | 0.00 | 0.00 | 0.00 | 89 | 1014.6 |
| 20260831034350 | 60 | 316 | 0.0 | 0.0 | 0.00 | 0.00 | 0.00 | 88 | 1014.6 |
| 20260831033854 | 60 | 316 | 0.0 | 0.0 | 0.00 | 0.00 | 0.00 | 88 | 1014.6 |
| 20260831032344 | 61 | 316 | 0.0 | 0.0 | 0.00 | 0.00 | 0.00 | 87 | 1014.5 |
| 20260831031837 | 61 | 316 | 0.0 | 0.0 | 0.00 | 0.00 | 0.00 | 87 | 1014.3 |
| 20260831031338 | 61 | 316 | 0.0 | 0.0 | 0.00 | 0.00 | 0.00 | 87 | 1014.8 |
| 20260831030841 | 61 | 316 | 0.0 | 0.0 | 0.00 | 0.00 | 0.00 | 87 | 1014.6 |
| 20260831030339 | 61 | 316 | 0.0 | 0.0 | 0.00 | 0.00 | 0.00 | 87 | 1014.8 |
| 20260831025838 | 61 | 316 | 0.0 | 0.0 | 0.00 | 0.00 | 0.00 | 86 | 1014.7 |
| 20260831025339 | 61 | 316 | 0.0 | 0.0 | 0.00 | 0.00 | 0.00 | 86 | 1014.7 |
| 20260831024844 | 61 | 316 | 0.0 | 0.0 | 0.00 | 0.00 | 0.00 | 86 | 1014.8 |
| 20260831023338 | 61 | 315 | 0.0 | 0.0 | 0.00 | 0.00 | 0.00 | 85 | 1014.6 |
| 20260831022849 | 61 | 316 | 0.0 | 0.0 | 0.00 | 0.00 | 0.00 | 85 | 1014.8 |
| 20260831022343 | 61 | 315 | 0.0 | 0.0 | 0.00 | 0.00 | 0.00 | 85 | 1014.7 |
| 20260831021838 | 62 | 316 | 0.0 | 0.0 | 0.00 | 0.00 | 0.00 | 85 | 1014.8 |
| 20260831021338 | 62 | 316 | 0.0 | 0.0 | 0.00 | 0.00 | 0.00 | 85 | 1014.8 |
| 20260831020337 | 62 | 316 | 0.0 | 0.0 | 0.00 | 0.00 | 0.00 | 85 | 1014.9 |
| 20260831015343 | 62 | 316 | 0.0 | 0.0 | 0.00 | 0.00 | 0.00 | 84 | 1014.8 |
| 20260831014837 | 62 | 316 | 0.0 | 0.0 | 0.00 | 0.00 | 0.00 | 84 | 1014.7 |
| 20260831014338 | 62 | 315 | 0.0 | 0.0 | 0.00 | 0.00 | 0.00 | 84 | 1014.7 |
| 20260831013840 | 62 | 315 | 0.0 | 0.0 | 0.00 | 0.00 | 0.00 | 83 | 1015.0 |
| 20260831013341 | 62 | 315 | 0.0 | 0.0 | 0.00 | 0.00 | 0.00 | 83 | 1015.0 |
| 20260831012837 | 62 | 315 | 0.0 | 0.0 | 0.00 | 0.00 | 0.00 | 82 | 1014.8 |
| 20260831012341 | 63 | 315 | 0.0 | 0.0 | 0.00 | 0.00 | 0.00 | 82 | 1014.9 |
| 20260831011838 | 63 | 315 | 0.0 | 0.0 | 0.00 | 0.00 | 0.00 | 81 | 1014.7 |
| 20260831010840 | 64 | 316 | 0.0 | 0.0 | 0.00 | 0.00 | 0.00 | 81 | 1014.6 |
| 20260831010341 | 64 | 315 | 0.0 | 0.0 | 0.00 | 0.00 | 0.00 | 80 | 1014.7 |
| 20260831005341 | 64 | 315 | 0.0 | 0.9 | 0.00 | 0.00 | 0.00 | 79 | 1014.8 |
| 20260831004839 | 64 | 315 | 0.0 | 0.9 | 0.00 | 0.00 | 0.00 | 79 | 1014.6 |
| 20260831004347 | 65 | 315 | 0.0 | 0.0 | 0.00 | 0.00 | 0.00 | 78 | 1014.6 |
| 20260831003833 | 65 | 315 | 0.0 | 0.0 | 0.00 | 0.00 | 0.00 | 77 | 1014.8 |
| 20260831003329 | 65 | 315 | 0.0 | 0.0 | 0.00 | 0.00 | 0.00 | 77 | 1014.6 |
| 20260831002832 | 65 | 315 | 0.0 | 0.0 | 0.00 | 0.00 | 0.00 | 76 | 1014.9 |
| 20260831001816 | 66 | 315 | 0.0 | 0.9 | 0.00 | 0.00 | 0.00 | 74 | 1014.6 |
| 20260831001318 | 66 | 315 | 0.0 | 0.9 | 0.00 | 0.00 | 0.00 | 73 | 1014.5 |
| 20260831000805 | 67 | 315 | 0.0 | 0.9 | 0.00 | 0.00 | 0.00 | 73 | 1014.7 |
| 20260831000303 | 67 | 315 | 0.0 | 0.9 | 0.00 | 0.00 | 0.00 | 72 | 1014.7 |
| 20260830235803 | 67 | 317 | 0.0 | 0.9 | 0.00 | 0.00 | 0.00 | 72 | 1014.6 |
| 20260830234750 | 67 | 317 | 0.0 | 1.7 | 0.00 | 0.00 | 0.00 | 70 | 1014.6 |
| 20260830234253 | 68 | 317 | 0.0 | 0.9 | 0.00 | 0.00 | 0.00 | 69 | 1014.8 |
| 20260830233240 | 68 | 312 | 0.0 | 1.7 | 0.00 | 0.00 | 0.00 | 68 | 1014.7 |
| 20260830232738 | 69 | 320 | 0.0 | 1.7 | 0.00 | 0.00 | 0.00 | 68 | 1014.7 |
| 20260830230740 | 69 | 326 | 0.0 | 1.7 | 0.00 | 0.00 | 0.00 | 66 | 1014.8 |
| 20260830230239 | 69 | 358 | 0.0 | 1.7 | 0.00 | 0.00 | 0.00 | 67 | 1014.9 |
| 20260830225238 | 69 | 352 | 0.0 | 2.6 | 0.00 | 0.00 | 0.00 | 66 | 1014.7 |
| 20260830224241 | 69 | 300 | 0.0 | 2.6 | 0.00 | 0.00 | 0.00 | 66 | 1014.8 |
| 20260830222738 | 69 | 308 | 0.0 | 1.7 | 0.00 | 0.00 | 0.00 | 65 | 1014.6 |
| 20260830222238 | 69 | 324 | 0.0 | 0.9 | 0.00 | 0.00 | 0.00 | 65 | 1014.5 |
| 20260830221756 | 70 | 330 | 0.0 | 0.0 | 0.00 | 0.00 | 0.00 | 65 | 1014.6 |
| 20260830221242 | 70 | 330 | 0.0 | 0.0 | 0.00 | 0.00 | 0.00 | 65 | 1014.6 |
| 20260830220740 | 70 | 345 | 0.0 | 0.9 | 0.00 | 0.00 | 0.00 | 64 | 1014.4 |
| 20260830220231 | 70 | 338 | 0.0 | 1.7 | 0.00 | 0.00 | 0.00 | 63 | 1014.3 |
| 20260830215725 | 70 | 319 | 0.0 | 1.7 | 0.00 | 0.00 | 0.00 | 63 | 1014.5 |
| 20260830215228 | 71 | 339 | 0.0 | 1.7 | 0.00 | 0.00 | 0.00 | 63 | 1014.5 |
| 20260830214728 | 71 | 307 | 0.0 | 1.7 | 0.00 | 0.00 | 0.00 | 63 | 1014.5 |
| 20260830214226 | 71 | 328 | 0.0 | 0.9 | 0.00 | 0.00 | 0.00 | 63 | 1014.3 |
| 20260830213728 | 71 | 320 | 0.0 | 0.9 | 0.00 | 0.00 | 0.00 | 62 | 1014.3 |
| 20260830213225 | 72 | 312 | 0.9 | 1.7 | 0.00 | 0.00 | 0.00 | 60 | 1014.3 |
| 20260830212746 | 73 | 312 | 0.0 | 1.7 | 0.00 | 0.00 | 0.00 | 59 | 1014.4 |
| 20260830212231 | 73 | 306 | 0.0 | 2.6 | 0.00 | 0.00 | 0.00 | 58 | 1014.2 |
| 20260830210728 | 72 | 308 | 0.9 | 3.5 | 0.00 | 0.00 | 0.00 | 59 | 1013.9 |
| 20260830210226 | 72 | 310 | 1.7 | 1.7 | 0.00 | 0.00 | 0.00 | 60 | 1014.1 |
| 20260830205725 | 72 | 315 | 0.0 | 2.6 | 0.00 | 0.00 | 0.00 | 59 | 1013.7 |
| 20260830205228 | 71 | 315 | 0.9 | 3.5 | 0.00 | 0.00 | 0.00 | 59 | 1014.1 |
| 20260830204731 | 70 | 308 | 0.9 | 3.5 | 0.00 | 0.00 | 0.00 | 60 | 1013.8 |
| 20260830204229 | 69 | 309 | 0.0 | 1.7 | 0.00 | 0.00 | 0.00 | 61 | 1013.9 |
| 20260830203729 | 69 | 345 | 0.0 | 0.0 | 0.00 | 0.00 | 0.00 | 61 | 1014.0 |
| 20260830202732 | 70 | 344 | 0.0 | 0.9 | 0.00 | 0.00 | 0.00 | 60 | 1013.9 |
| 20260830202228 | 69 | 344 | 0.9 | 0.9 | 0.00 | 0.00 | 0.00 | 60 | 1014.1 |
| 20260830201730 | 70 | 352 | 0.0 | 0.0 | 0.00 | 0.00 | 0.00 | 60 | 1014.1 |
| 20260830201228 | 70 | 352 | 0.0 | 0.9 | 0.00 | 0.00 | 0.00 | 60 | 1014.0 |